This is the latest recevied weather packets stored in our database for station/object DC0VZ-6. If no packets are shown the sender has not sent any weather packets the latest 10 day(s).
| Time | Temp. | Humidity | Pressure | Rain* | Wind** | Luminosity | Snow |
|---|---|---|---|---|---|---|---|
| 1777573571 | 16.11° C | 5% | 991.8 hPa | 0 mm | - | - | - |
| 1777572971 | 16.67° C | 5% | 991.8 hPa | 0 mm | - | - | - |
| 1777572371 | 16.67° C | 5% | 991.8 hPa | 0 mm | - | - | - |
| 1777571771 | 17.22° C | 5% | 992.1 hPa | 0 mm | - | - | - |
| 1777571170 | 17.22° C | 5% | 992.1 hPa | 0 mm | - | - | - |
| 1777570570 | 17.78° C | 5% | 992.2 hPa | 0 mm | - | - | - |
| 1777569970 | 17.78° C | 5% | 992.2 hPa | 0 mm | - | - | - |
| 1777569370 | 17.78° C | 5% | 992.4 hPa | 0 mm | - | - | - |
| 1777568770 | 18.33° C | 5% | 992.4 hPa | 0 mm | - | - | - |
| 1777568170 | 18.33° C | 5% | 992.6 hPa | 0 mm | - | - | - |
| 1777566970 | 18.89° C | 5% | 993.4 hPa | 0 mm | - | - | - |
| 1777566370 | 18.89° C | 5% | 993.4 hPa | 0 mm | - | - | - |
| 1777565770 | 18.89° C | 5% | 993.8 hPa | 0 mm | - | - | - |
| 1777565170 | 18.89° C | 5% | 993.8 hPa | 0 mm | - | - | - |
| 1777564570 | 19.44° C | 5% | 993.2 hPa | 0 mm | - | - | - |
| 1777563969 | 18.89° C | 5% | 993.2 hPa | 0 mm | - | - | - |
| 1777563369 | 19.44° C | 5% | 993.2 hPa | 0 mm | - | - | - |
| 1777562769 | 19.44° C | 5% | 993.2 hPa | 0 mm | - | - | - |
| 1777562169 | 19.44° C | 5% | 993.2 hPa | 0 mm | - | - | - |
| 1777561574 | 19.44° C | 5% | 993.2 hPa | 0 mm | - | - | - |
| 1777560974 | 19.44° C | 5% | 993.3 hPa | 0 mm | - | - | - |
| 1777560374 | 20° C | 5% | 993.3 hPa | 0 mm | - | - | - |
| 1777559774 | 20° C | 5% | 993.4 hPa | 0 mm | - | - | - |
| 1777559174 | 20° C | 5% | 993.4 hPa | 0 mm | - | - | - |
| 1777558574 | 20° C | 5% | 993.5 hPa | 0 mm | - | - | - |
* Rain latest hour (hover to see other rain measurements)
** Current wind speed in m/s (hover to see current wind gust speed)